Tracking 20942 objects as of 9-Jul-2020
HD Live streaming from Space Station
objects crossing your sky now

RADUGA 1-4

Track RADUGA 1-4 now!
RADUGA 1-4 is classified as:


NORAD ID: 25642
Int'l Code: 1999-010A
Perigee: 35,762.6 km
Apogee: 35,785.0 km
Inclination: 14.9 °
Period: 1,435.1 minutes
Semi major axis: 42144 km
RCS: 12.5893 m2 (large)
Launch date: February 28, 1999
Source: Commonwealth of Independent States (former USSR) (CIS)
Launch site: TYURATAM MISSILE AND SPACE COMPLEX (TTMTR)

Military communication.
aabbcc
Your satellite tracking list
Your tracking list is empty




NASA's NSSDC Master Catalog

Two Line Element Set (TLE):
1 25642U 99010A   20191.15860164  .00000032  00000-0  00000+0 0  9996
2 25642  14.8992  20.0324 0002664 297.9452  81.9680  1.00342915 78227
Source of the keplerian elements: AFSPC